JZA39 CYVR-CYCD

Flight info

Callsign JZA39
Flight time 0h 13m
Altitude 4000
Route YVR V342 ARMAC DCT YCD
Aircraft DH8D/M-SDE2E3FGRY/H

Departure

Time 2026-05-05 04:42
Airport Vancouver International Airport (CYVR)

Arrival

Time 2026-05-05 04:55
Airport Nanaimo Airport (CYCD)
Time Latitude Longitude Altitude Speed Heading
2026-05-05 04:28 49.19482 -123.18381 20 ft 0 kts 328°
2026-05-05 04:36 49.19484 -123.18382 20 ft 0 kts 336°
2026-05-05 04:36 49.19487 -123.18382 20 ft 0 kts 11°
2026-05-05 04:36 49.19487 -123.18366 20 ft 3 kts 144°
2026-05-05 04:37 49.19464 -123.18351 20 ft 3 kts 158°
2026-05-05 04:37 49.19441 -123.18346 20 ft 4 kts 186°
2026-05-05 04:37 49.19382 -123.18389 20 ft 15 kts 249°
2026-05-05 04:37 49.19394 -123.18566 19 ft 16 kts 281°
2026-05-05 04:38 49.19394 -123.18735 17 ft 14 kts 259°
2026-05-05 04:38 49.19376 -123.18877 17 ft 12 kts 260°
2026-05-05 04:38 49.19361 -123.19000 17 ft 12 kts 259°
2026-05-05 04:38 49.19342 -123.19138 17 ft 14 kts 257°
2026-05-05 04:39 49.19324 -123.19292 17 ft 15 kts 261°
2026-05-05 04:39 49.19304 -123.19458 17 ft 16 kts 259°
2026-05-05 04:39 49.19283 -123.19629 18 ft 16 kts 259°
2026-05-05 04:39 49.19261 -123.19800 20 ft 18 kts 259°
2026-05-05 04:40 49.19230 -123.20053 21 ft 30 kts 259°
2026-05-05 04:40 49.19195 -123.20332 23 ft 19 kts 259°
2026-05-05 04:40 49.19118 -123.20434 23 ft 13 kts 191°
2026-05-05 04:40 49.19031 -123.20458 23 ft 11 kts 189°
2026-05-05 04:41 49.18975 -123.20435 23 ft 11 kts 116°
2026-05-05 04:41 49.18927 -123.20052 21 ft 81 kts 101°
2026-05-05 04:41 49.18783 -123.18787 32 ft 149 kts 101°
2026-05-05 04:41 49.18567 -123.17145 409 ft 171 kts 103°
2026-05-05 04:42 49.18044 -123.15498 1057 ft 179 kts 131°
2026-05-05 04:42 49.16978 -123.14436 1597 ft 195 kts 157°
2026-05-05 04:42 49.15679 -123.13753 2201 ft 205 kts 161°
2026-05-05 04:42 49.14305 -123.13074 2806 ft 213 kts 161°
2026-05-05 04:43 49.12981 -123.12371 3257 ft 197 kts 161°
2026-05-05 04:43 49.11713 -123.11874 3595 ft 183 kts 182°
2026-05-05 04:43 49.10589 -123.12506 3795 ft 171 kts 227°
2026-05-05 04:43 49.10084 -123.14057 3908 ft 163 kts 265°
2026-05-05 04:44 49.09948 -123.15940 3997 ft 197 kts 265°
2026-05-05 04:44 49.09763 -123.18231 4039 ft 233 kts 263°
2026-05-05 04:44 49.09813 -123.20826 4006 ft 237 kts 289°
2026-05-05 04:44 49.10469 -123.23154 4003 ft 240 kts 296°
2026-05-05 04:45 49.11155 -123.25486 3995 ft 243 kts 295°
2026-05-05 04:45 49.11859 -123.27992 4009 ft 246 kts 294°
2026-05-05 04:45 49.12530 -123.30483 4005 ft 248 kts 293°
2026-05-05 04:45 49.13183 -123.32912 3999 ft 250 kts 294°
2026-05-05 04:46 49.13829 -123.35383 4008 ft 252 kts 292°
2026-05-05 04:46 49.14470 -123.37993 4004 ft 252 kts 292°
2026-05-05 04:46 49.15076 -123.40498 3992 ft 249 kts 291°
2026-05-05 04:46 49.15681 -123.43014 4005 ft 247 kts 291°
2026-05-05 04:47 49.16266 -123.45463 4006 ft 246 kts 291°
2026-05-05 04:47 49.16845 -123.47893 3999 ft 244 kts 291°
2026-05-05 04:47 49.17439 -123.50395 3993 ft 242 kts 291°
2026-05-05 04:47 49.18026 -123.52871 3992 ft 241 kts 291°
2026-05-05 04:48 49.18592 -123.55266 3996 ft 240 kts 291°
2026-05-05 04:48 49.19159 -123.57668 3996 ft 240 kts 291°
2026-05-05 04:48 49.19724 -123.60070 3992 ft 239 kts 291°
2026-05-05 04:48 49.20298 -123.62508 3987 ft 238 kts 291°
2026-05-05 04:49 49.20866 -123.64930 3990 ft 238 kts 291°
2026-05-05 04:49 49.21424 -123.67310 3996 ft 238 kts 290°
2026-05-05 04:49 49.21983 -123.69692 3996 ft 238 kts 290°
2026-05-05 04:49 49.22543 -123.72086 4001 ft 237 kts 290°
2026-05-05 04:50 49.22979 -123.74436 3937 ft 230 kts 279°
2026-05-05 04:50 49.23051 -123.76840 3811 ft 222 kts 272°
2026-05-05 04:50 49.23061 -123.79123 3672 ft 208 kts 271°
2026-05-05 04:50 49.23066 -123.81233 3511 ft 190 kts 271°
2026-05-05 04:51 49.23077 -123.83244 3390 ft 188 kts 271°
2026-05-05 04:51 49.22919 -123.85183 3325 ft 186 kts 247°
2026-05-05 04:51 49.22051 -123.86595 3286 ft 181 kts 203°
2026-05-05 04:51 49.20821 -123.86880 3210 ft 182 kts 178°
2026-05-05 04:52 49.19562 -123.86791 3032 ft 182 kts 177°
2026-05-05 04:52 49.18308 -123.86746 2750 ft 181 kts 179°
2026-05-05 04:52 49.17043 -123.86751 2380 ft 182 kts 180°
2026-05-05 04:52 49.15779 -123.86771 1931 ft 184 kts 181°
2026-05-05 04:53 49.14525 -123.86799 1604 ft 176 kts 181°
2026-05-05 04:53 49.13369 -123.86827 1423 ft 159 kts 181°
2026-05-05 04:53 49.12288 -123.86858 1282 ft 155 kts 181°
2026-05-05 04:53 49.11236 -123.86882 1208 ft 145 kts 181°
2026-05-05 04:54 49.10238 -123.86906 976 ft 143 kts 179°
2026-05-05 04:54 49.09287 -123.86902 686 ft 132 kts 180°
2026-05-05 04:54 49.08393 -123.86946 469 ft 127 kts 179°
2026-05-05 04:54 49.07520 -123.86962 344 ft 125 kts 182°
2026-05-05 04:55 49.06651 -123.86982 210 ft 124 kts 181°
2026-05-05 04:55 49.05866 -123.87004 103 ft 82 kts 181°
2026-05-05 04:55 49.05561 -123.87015 105 ft 18 kts 183°
2026-05-05 04:55 49.05470 -123.87086 108 ft 12 kts 222°
2026-05-05 04:56 49.05419 -123.87163 109 ft 8 kts 225°
2026-05-05 04:56 49.05389 -123.87211 110 ft 4 kts 226°
2026-05-05 04:56 49.05365 -123.87245 111 ft 5 kts 210°
2026-05-05 04:56 49.05329 -123.87262 111 ft 4 kts 211°
2026-05-05 04:57 49.05324 -123.87287 112 ft 1 kts 272°
2026-05-05 04:57 49.05324 -123.87301 112 ft 2 kts 272°
2026-05-05 04:57 49.05336 -123.87331 113 ft 3 kts 340°
2026-05-05 04:57 49.05339 -123.87332 113 ft 0 kts 343°